EST,Max TemperatureF,Mean TemperatureF,Min TemperatureF,Max Dew PointF,MeanDew PointF,Min DewpointF,Max Humidity, Mean Humidity, Min Humidity, Max Sea Level PressureIn, Mean Sea Level PressureIn, Min Sea Level PressureIn, Max VisibilityMiles, Mean VisibilityMiles, Min VisibilityMiles, Max Wind SpeedMPH, Mean Wind SpeedMPH, Max Gust SpeedMPH,PrecipitationIn, CloudCover, Events, WindDirDegrees
2013-12-1,35,32,28,28,27,23,93,80,69,30.13,30.07,30.00,10,9,5,8,4,,0.00,8,,335
2013-12-2,35,26,17,30,24,16,100,81,65,29.99,29.91,29.87,10,8,0,14,3,,0.00,7,,89
2013-12-3,55,28,24,27,23,21,93,85,75,29.93,29.90,29.87,10,6,1,15,11,20,0.00,8,,52
2013-12-4,41,34,26,39,29,23,100,92,86,29.89,29.70,29.31,10,3,0,18,10,23,0.38,8,,67
2013-12-5,42,26,10,39,14,0,93,65,46,30.09,29.70,29.31,10,10,1,28,16,33,0.01,5,,255
2013-12-6,17,10,3,1,0,-2,85,66,45,30.36,30.24,30.10,10,10,10,16,12,21,0.01,0,,274
2013-12-7,14,8,1,0,-3,-8,85,65,41,30.53,30.48,30.38,10,10,10,15,11,21,0.00,0,,273
2013-12-8,14,5,-2,10,-1,-9,92,76,57,30.52,30.35,30.00,10,7,1,10,6,,0.00,5,,324
2013-12-9,19,8,-2,12,4,-11,92,72,52,29.99,29.85,29.73,10,8,1,24,9,34,0.00,5,,283
2013-12-10,12,4,-4,0,-5,-11,85,70,56,30.07,29.90,29.76,10,9,1,16,11,21,0.00,2,,269
2013-12-11,1,0,-2,-2,-7,-9,85,74,71,30.24,30.14,30.07,10,10,10,12,9,,0.00,0,,269
2013-12-12,,,,,,,,,,,,,,,,,,,,,,
2013-12-13,,,,,,,,,,,,,,,,,,,,,,
2013-12-14,,,,,,,,,,,,,,,,,,,,,,
2013-12-15,,,,,,,,,,,,,,,,,,,,,,
2013-12-16,,,,,,,,,,,,,,,,,,,,,,
2013-12-17,24,17,10,18,13,7,92,75,58,29.92,29.81,29.76,10,8,2,15,5,24,0.00,6,,279
2013-12-18,21,14,6,12,7,0,100,70,53,30.00,29.86,29.68,10,10,6,13,7,17,0.00,5,,264
2013-12-19,24,16,8,18,12,3,100,78,68,30.07,29.93,29.68,10,10,10,14,6,24,0.00,6,,329
2013-12-20,21,19,17,18,15,12,93,83,74,30.02,29.94,29.84,10,7,2,10,7,17,0.00,7,,34
2013-12-21,24,20,15,18,16,12,93,82,69,29.98,29.90,29.83,10,10,10,10,5,,0.00,3,,23
2013-12-22,21,20,19,18,15,12,93,82,68,30.05,29.92,29.86,10,6,1,14,8,20,0.00,6,,30
2013-12-23,21,16,12,16,12,7,86,77,63,30.34,30.22,30.06,10,9,3,10,5,,0.00,8,,338
2013-12-24,19,12,6,9,5,0,92,73,53,30.44,30.38,30.28,10,10,10,12,6,,0.00,5,,256
2013-12-25,17,14,10,10,8,3,86,77,63,30.26,30.06,29.98,10,8,1,15,9,20,0.00,7,,241
2013-12-26,15,5,-5,12,4,-11,100,77,58,30.18,30.08,29.96,10,10,6,12,6,,0.00,3,,276
2013-12-27,30,10,-9,25,9,-22,100,83,54,30.19,30.03,29.83,10,8,4,21,5,28,0.00,5,,238
2013-12-28,33,30,26,28,27,23,100,86,75,29.94,29.84,29.72,10,8,0,13,6,20,0.00,7,,236
2013-12-29,33,16,0,28,5,-9,81,66,52,30.09,29.92,29.72,10,10,5,20,13,32,0.00,6,,330
2013-12-30,6,-2,-9,-6,-10,-15,84,66,48,30.21,30.13,30.05,10,10,10,14,10,20,0.00,2,,275
2013-12-31,6,0,-7,-8,-11,-17,84,64,48,30.32,30.13,30.02,10,10,10,17,10,22,0.00,1,,280